• en Suisse
  • Liste des pays
  • À 7 jours
  • Température de l'eau
  • Carte satellitaire
  • Carte météo
  • Widgets météo
  • user-avatar
    Se connecter

    Météo par heure à Borovoe

    Ce jour, 26 Mai, Samedi

    Heure Température Précipitation Vent Pression Humidité
    00:00 +8°C° 0 mm 3 m/s 759 mmHg 67%
    01:00 +7°C° 0 mm 3 m/s 760 mmHg 69%
    02:00 +7°C° 0 mm 3 m/s 760 mmHg 71%
    03:00 +6°C° 0 mm 2 m/s 761 mmHg 73%
    04:00 +6°C° 0 mm 2 m/s 761 mmHg 71%
    05:00 +7°C° 0 mm 3 m/s 762 mmHg 69%
    06:00 +7°C° 0 mm 3 m/s 762 mmHg 68%
    07:00 +9°C° 0 mm 3 m/s 763 mmHg 61%
    08:00 +11°C° 0 mm 4 m/s 763 mmHg 54%
    09:00 +12°C° 0 mm 4 m/s 764 mmHg 47%
    10:00 +13°C° 0 mm 4 m/s 764 mmHg 46%
    11:00 +14°C° 0 mm 4 m/s 764 mmHg 44%
    12:00 +15°C° 0 mm 4 m/s 764 mmHg 43%
    13:00 +15°C° 0 mm 4 m/s 763 mmHg 42%
    14:00 +17°C° 0 mm 3 m/s 763 mmHg 41%
    15:00 +17°C° 0 mm 3 m/s 763 mmHg 41%
    16:00 +17°C° 0 mm 2 m/s 763 mmHg 43%
    17:00 +17°C° 0 mm 2 m/s 763 mmHg 46%
    18:00 +18°C° 0 mm 1 m/s 763 mmHg 49%
    19:00 +15°C° 0 mm 1 m/s 763 mmHg 52%
    20:00 +13°C° 0 mm 1 m/s 763 mmHg 56%
    21:00 +11°C° 0 mm 1 m/s 763 mmHg 60%
    22:00 +10°C° 0 mm 1 m/s 763 mmHg 61%
    23:00 +10°C° 0 mm 1 m/s 763 mmHg 63%

    Demain, 27 Mai, Dimanche

    Heure Température Précipitation Vent Pression Humidité
    00:00 +8°C° 0 mm 2 m/s 763 mmHg 65%
    01:00 +8°C° 0 mm 2 m/s 763 mmHg 66%
    02:00 +8°C° 0 mm 2 m/s 763 mmHg 68%
    03:00 +7°C° 0 mm 2 m/s 763 mmHg 70%
    04:00 +8°C° 0 mm 3 m/s 763 mmHg 71%
    05:00 +9°C° 0 mm 3 m/s 763 mmHg 71%
    06:00 +9°C° 0 mm 3 m/s 763 mmHg 72%
    07:00 +11°C° 0 mm 3 m/s 762 mmHg 68%
    08:00 +13°C° 0 mm 4 m/s 762 mmHg 64%
    09:00 +15°C° 0 mm 4 m/s 762 mmHg 59%
    10:00 +17°C° 0 mm 4 m/s 761 mmHg 57%
    11:00 +17°C° 0 mm 5 m/s 761 mmHg 54%
    12:00 +19°C° 0 mm 5 m/s 760 mmHg 51%
    13:00 +20°C° 0 mm 5 m/s 760 mmHg 51%
    14:00 +20°C° 0 mm 6 m/s 759 mmHg 52%
    15:00 +20°C° 0 mm 6 m/s 758 mmHg 52%
    16:00 +20°C° 0 mm 6 m/s 758 mmHg 56%
    17:00 +20°C° 0 mm 5 m/s 757 mmHg 60%
    18:00 +19°C° 0 mm 5 m/s 756 mmHg 64%
    19:00 +17°C° 0 mm 5 m/s 756 mmHg 68%
    20:00 +17°C° 0 mm 4 m/s 756 mmHg 72%
    21:00 +14°C° 0 mm 4 m/s 756 mmHg 76%
    22:00 +14°C° 0 mm 4 m/s 756 mmHg 78%
    23:00 +14°C° 0 mm 4 m/s 756 mmHg 80%

    Après-demain, 28 Mai, Lundi

    Heure Température Précipitation Vent Pression Humidité
    00:00 +13°C° 0 mm 4 m/s 756 mmHg 82%
    01:00 +13°C° 0 mm 3 m/s 756 mmHg 86%
    02:00 +12°C° 0 mm 3 m/s 756 mmHg 91%
    03:00 +11°C° 0 mm 3 m/s 757 mmHg 95%
    04:00 +11°C° 0 mm 3 m/s 757 mmHg 91%
    05:00 +11°C° 0 mm 3 m/s 757 mmHg 88%
    06:00 +11°C° 0 mm 3 m/s 757 mmHg 84%
    07:00 +12°C° 0 mm 4 m/s 758 mmHg 73%
    08:00 +14°C° 0 mm 4 m/s 758 mmHg 61%
    09:00 +15°C° 0 mm 4 m/s 759 mmHg 50%
    10:00 +16°C° 0 mm 5 m/s 759 mmHg 47%
    11:00 +16°C° 0 mm 5 m/s 759 mmHg 44%
    12:00 +17°C° 0 mm 5 m/s 759 mmHg 41%
    13:00 +17°C° 0 mm 5 m/s 758 mmHg 41%
    14:00 +17°C° 0 mm 5 m/s 758 mmHg 40%
    15:00 +19°C° 0 mm 5 m/s 758 mmHg 40%
    16:00 +18°C° 0 mm 4 m/s 758 mmHg 44%
    17:00 +18°C° 0 mm 4 m/s 758 mmHg 49%
    18:00 +17°C° 0 mm 3 m/s 758 mmHg 53%
    19:00 +14°C° 0 mm 3 m/s 758 mmHg 56%
    20:00 +12°C° 0 mm 3 m/s 759 mmHg 59%
    21:00 +10°C° 0 mm 2 m/s 759 mmHg 63%
    22:00 +9°C° 0 mm 2 m/s 759 mmHg 64%
    23:00 +9°C° 0 mm 2 m/s 759 mmHg 66%

    29 Mai, Mardi

    Heure Température Précipitation Vent Pression Humidité
    00:00 +8°C° 0 mm 2 m/s 759 mmHg 68%
    01:00 +8°C° 0 mm 2 m/s 759 mmHg 68%
    02:00 +7°C° 0 mm 2 m/s 759 mmHg 68%
    03:00 +7°C° 0 mm 2 m/s 759 mmHg 69%
    04:00 +8°C° 0 mm 2 m/s 759 mmHg 68%
    05:00 +9°C° 0 mm 2 m/s 759 mmHg 68%
    06:00 +9°C° 0 mm 3 m/s 760 mmHg 67%
    07:00 +11°C° 0 mm 4 m/s 759 mmHg 62%
    08:00 +14°C° 0 mm 4 m/s 759 mmHg 57%
    09:00 +16°C° 0 mm 5 m/s 759 mmHg 52%
    10:00 +17°C° 0 mm 5 m/s 758 mmHg 50%
    11:00 +19°C° 0 mm 5 m/s 758 mmHg 48%
    12:00 +21°C° 0 mm 6 m/s 758 mmHg 46%
    13:00 +21°C° 0 mm 6 m/s 757 mmHg 46%
    14:00 +22°C° 0 mm 6 m/s 757 mmHg 46%
    15:00 +22°C° 0 mm 5 m/s 757 mmHg 46%
    16:00 +22°C° 0 mm 5 m/s 756 mmHg 50%
    17:00 +21°C° 0 mm 4 m/s 756 mmHg 54%
    18:00 +21°C° 0 mm 4 m/s 755 mmHg 59%
    19:00 +19°C° 0 mm 4 m/s 755 mmHg 64%
    20:00 +17°C° 0 mm 3 m/s 755 mmHg 68%
    21:00 +16°C° 0 mm 3 m/s 755 mmHg 73%
    22:00 +14°C° 0 mm 3 m/s 755 mmHg 75%
    23:00 +13°C° 0 mm 3 m/s 754 mmHg 76%

    30 Mai, Mercredi

    Heure Température Précipitation Vent Pression Humidité
    00:00 +12°C° 0 mm 3 m/s 754 mmHg 78%
    01:00 +12°C° 0 mm 3 m/s 754 mmHg 79%
    02:00 +12°C° 0 mm 3 m/s 754 mmHg 80%
    03:00 +11°C° 0 mm 3 m/s 753 mmHg 81%
    04:00 +12°C° 0 mm 3 m/s 753 mmHg 79%
    05:00 +13°C° 0 mm 3 m/s 753 mmHg 78%
    06:00 +13°C° 0 mm 3 m/s 752 mmHg 76%
    07:00 +16°C° 0 mm 3 m/s 752 mmHg 72%
    08:00 +18°C° 0 mm 4 m/s 751 mmHg 68%
    09:00 +20°C° 0 mm 4 m/s 751 mmHg 64%
    10:00 +22°C° 0 mm 4 m/s 750 mmHg 60%
    11:00 +23°C° 0 mm 5 m/s 750 mmHg 56%
    12:00 +24°C° 0 mm 6 m/s 749 mmHg 52%
    13:00 +24°C° 0 mm 6 m/s 749 mmHg 52%
    14:00 +24°C° 0 mm 6 m/s 748 mmHg 51%
    15:00 +26°C° 0 mm 7 m/s 748 mmHg 50%
    16:00 +24°C° 0 mm 6 m/s 747 mmHg 54%
    17:00 +24°C° 0 mm 6 m/s 746 mmHg 57%
    18:00 +23°C° 0 mm 5 m/s 745 mmHg 61%
    19:00 +22°C° 0 mm 5 m/s 745 mmHg 62%
    20:00 +21°C° 0 mm 5 m/s 745 mmHg 63%
    21:00 +19°C° 0 mm 6 m/s 745 mmHg 65%
    22:00 +17°C° 0,3 mm 5 m/s 745 mmHg 73%
    23:00 +15°C° 0,3 mm 4 m/s 745 mmHg 82%

    31 Mai, Jeudi

    Heure Température Précipitation Vent Pression Humidité
    00:00 +13°C° 0,3 mm 4 m/s 746 mmHg 90%
    01:00 +12°C° 0 mm 4 m/s 746 mmHg 90%
    02:00 +10°C° 0 mm 4 m/s 746 mmHg 89%
    03:00 +8°C° 0 mm 3 m/s 746 mmHg 88%
    04:00 +8°C° 0 mm 4 m/s 747 mmHg 85%
    05:00 +8°C° 0 mm 4 m/s 747 mmHg 83%
    06:00 +8°C° 0 mm 5 m/s 747 mmHg 80%
    07:00 +9°C° 0 mm 5 m/s 747 mmHg 71%
    08:00 +10°C° 0 mm 6 m/s 747 mmHg 63%
    09:00 +11°C° 0 mm 6 m/s 748 mmHg 55%
    10:00 +13°C° 0 mm 6 m/s 748 mmHg 52%
    11:00 +14°C° 0 mm 6 m/s 748 mmHg 49%
    12:00 +15°C° 0 mm 6 m/s 748 mmHg 47%
    13:00 +14°C° 0 mm 6 m/s 748 mmHg 48%
    14:00 +14°C° 0 mm 6 m/s 749 mmHg 50%
    15:00 +14°C° 0 mm 5 m/s 749 mmHg 51%
    16:00 +14°C° 0 mm 5 m/s 749 mmHg 52%
    17:00 +13°C° 0 mm 4 m/s 749 mmHg 54%
    18:00 +13°C° 0 mm 4 m/s 750 mmHg 55%
    19:00 +12°C° 0 mm 3 m/s 750 mmHg 55%
    20:00 +11°C° 0 mm 3 m/s 750 mmHg 56%
    21:00 +10°C° 0 mm 2 m/s 751 mmHg 56%
    22:00 +10°C° 0 mm 2 m/s 751 mmHg 56%
    23:00 +9°C° 0 mm 2 m/s 751 mmHg 57%
    Voir plus